User: anonymous   Login
Location: Starry Hill Observatory
(46.8582°N, 122.3590°W)
Time: 03:19:05
(UTC-07:00)
Language:

Cosmos 1300 Rocket - Orbit

View from above orbital plane
View from above orbital plane
View from above satellite
View from above satellite

Ground track
Ground track

The orbit data is extracted from the following two-line orbital elements,

1 12786U 81082B   14297.11255041  .00000644  00000-0  74042-4 0   238
2 12786 082.4884 158.9727 0017463 201.7199 158.3278 14.84213784791338
Epoch (UTC): 24 October 2014 02:42:04
Eccentricity: 0.0017463
inclination: 82.4884°
perigee height: 604 km
apogee height: 628 km
right ascension of ascending node: 158.9727°
argument of perigee: 201.7199°
revolutions per day: 14.84213784
mean anomaly at epoch: 158.3278°
orbit number at epoch: 79133

The dashed part of the orbit path shows where the satellite is in the earth's shadow,  

DLR